Seattle, WA
on Sunday, November 25, 2012

Sunday
Previous Day Next Day
Daily Summary
 ActualAverageRecord
Temperature
Mean Temperature °F 43°F  
Max Temperature 47°F 49°F 59°F (1949)
Min Temperature 34°F 38°F 18°F (1985)
Degree Days
Heating Degree Days 24 22  
Month to date heating degree days 441 475  
Since 1 July heating degree days 934 1072  
Cooling Degree Days 0 0  
Month to date cooling degree days 0 0  
Year to date cooling degree days 177 189  
Moisture
Dew Point 37°F   
Average Humidity 86    
Maximum Humidity 100    
Minimum Humidity 71    
Precipitation
Precipitation 0.00 in 0.22 in 3.04 in (1998)
Month to date precipitation 6.71 5.47  
Year to date precipitation 39.84 31.04  
Snow
Snow 0.00 in in 0.50 in (1985)
Month to date snowfall 0.0  
Since 1 July snowfall 0.0  
Snow Depth 0.00 in   
Wind
Wind Speed 8 mph   
Max Wind Speed 17 mph   
Max Gust Speed 20 mph   
Visibility 5 miles   
Events Fog   

Key: T is trace of precipitation, MM is missing value
Source: NWS Daily Summary
Time(PST)TemperatureDew PointHumidity Pressure Visibility Wind DirectionWind SpeedGust SpeedPrecipitationEvents Conditions
12:53 AM 42.1°F 39.0°F 89% 30.29 in 7.0 miles ENE 3.5 mph - N/A   Overcast
1:15 AM 42.8°F 39.2°F 87% 30.27 in 5.0 miles Calm Calm - N/A   Mostly Cloudy
1:44 AM 41.0°F 37.4°F 87% 30.27 in 7.0 miles Calm Calm - N/A   Partly Cloudy
1:53 AM 42.1°F 39.0°F 89% 30.30 in 7.0 miles Calm Calm - N/A   Scattered Clouds
2:53 AM 39.0°F 37.0°F 93% 30.31 in 7.0 miles North 3.5 mph - N/A   Scattered Clouds
3:53 AM 39.0°F 36.0°F 89% 30.32 in 10.0 miles NE 3.5 mph - N/A   Partly Cloudy
4:53 AM 37.9°F 36.0°F 93% 30.33 in 7.0 miles NE 4.6 mph - N/A Fog Patches of Fog
5:04 AM 37.4°F 35.6°F 93% 30.30 in 5.0 miles NE 5.8 mph - N/A   Scattered Clouds
5:41 AM 35.6°F 33.8°F 93% 30.30 in 0.2 miles NNE 4.6 mph - N/A Fog Fog
5:53 AM 34.0°F 33.1°F 96% 30.33 in 0.2 miles NNE 4.6 mph - N/A Fog Fog
6:14 AM 35.6°F 33.8°F 93% 30.30 in 0.2 miles Calm Calm - N/A Fog Fog
6:26 AM 35.6°F 33.8°F 93% 30.30 in 1.5 miles Calm Calm - N/A   Overcast
6:46 AM 35.6°F 33.8°F 93% 30.30 in 0.5 miles Calm Calm - N/A Fog Fog
6:53 AM 36.0°F 34.0°F 93% 30.33 in 0.2 miles Calm Calm - N/A Fog Fog
7:49 AM 37.4°F 35.6°F 93% 30.31 in 0.2 miles Calm Calm - N/A Fog Fog
7:53 AM 37.0°F 35.1°F 93% 30.35 in 0.2 miles North 3.5 mph - N/A Fog Fog
8:53 AM 37.9°F 36.0°F 93% 30.36 in 0.2 miles North 4.6 mph - N/A Fog Fog
9:48 AM 39.2°F 37.4°F 93% 30.34 in 0.2 miles North 6.9 mph - N/A Fog Fog
9:53 AM 39.9°F 37.9°F 93% 30.37 in 0.2 miles NNE 6.9 mph - N/A Fog Fog
10:00 AM 39.2°F 37.4°F 93% 30.34 in 0.2 miles NNE 6.9 mph - N/A Fog Fog
10:07 AM 39.2°F 39.2°F 100% 30.34 in 0.2 miles North 5.8 mph - N/A Fog Fog
10:40 AM 39.2°F 37.4°F 93% 30.34 in 0.5 miles North 4.6 mph - N/A Fog Fog
10:53 AM 41.0°F 39.0°F 93% 30.37 in 0.5 miles North 9.2 mph - N/A Fog Fog
11:51 AM 42.8°F 39.2°F 87% 30.33 in 1.5 miles North 11.5 mph - N/A   Overcast
11:53 AM 42.1°F 39.0°F 89% 30.35 in 1.5 miles North 9.2 mph - N/A   Overcast
11:58 AM 42.8°F 39.2°F 87% 30.32 in 3.0 miles NNE 10.4 mph - N/A   Overcast
12:00 PM 42.8°F 39.2°F 87% 30.32 in 0.5 miles NNE 12.7 mph - N/A   Overcast
12:11 PM 42.8°F 39.2°F 87% 30.32 in 1.0 miles North 13.8 mph - N/A   Overcast
12:28 PM 42.8°F 39.2°F 87% 30.32 in 8.0 miles NNE 12.7 mph - N/A   Scattered Clouds
12:53 PM 45.0°F 37.0°F 74% 30.34 in 10.0 miles NNE 11.5 mph - N/A   Scattered Clouds
1:53 PM 45.0°F 37.0°F 74% 30.32 in 10.0 miles NNE 11.5 mph - N/A   Mostly Cloudy
2:53 PM 46.9°F 37.0°F 68% 30.32 in 10.0 miles North 10.4 mph - N/A   Scattered Clouds
3:53 PM 44.1°F 37.0°F 76% 30.32 in 10.0 miles North 9.2 mph - N/A   Partly Cloudy
4:53 PM 41.0°F 34.0°F 76% 30.32 in 10.0 miles North 10.4 mph - N/A   Partly Cloudy
5:53 PM 42.1°F 35.1°F 76% 30.30 in 10.0 miles NNE 11.5 mph - N/A   Clear
6:53 PM 41.0°F 35.1°F 79% 30.29 in 10.0 miles NNE 13.8 mph - N/A   Clear
7:53 PM 39.9°F 35.1°F 83% 30.28 in 10.0 miles North 12.7 mph - N/A   Clear
8:53 PM 39.9°F 36.0°F 86% 30.27 in 10.0 miles NNE 13.8 mph - N/A   Clear
9:53 PM 39.0°F 35.1°F 86% 30.26 in 10.0 miles North 13.8 mph - N/A   Partly Cloudy
10:53 PM 37.9°F 35.1°F 89% 30.24 in 8.0 miles NNE 11.5 mph - N/A   Partly Cloudy
11:03 PM 37.4°F 35.6°F 93% 30.21 in 7.0 miles North 13.8 mph - N/A   Scattered Clouds
11:53 PM 37.0°F 35.1°F 93% 30.23 in 7.0 miles North 11.5 mph - N/A   Partly Cloudy
Moon Phase
Nov. 25 Nov. 28 Dec. 06 Dec. 13 Dec. 20
Sunrise:07:28 AM (PST) Moon Rise:02:50 PM (PST)11/25
Sunset:04:23 PM (PST) Moon Set:04:40 AM (PST)11/25

Copyright © 2014 The Weather Underground, Inc.